WXM80 ListenWXM80 Stop

You find our weather info also at:

UK Metoffice

WeatherCloud

Weather Underground

Northeastern Weather Network

AWEKAS

Citizen Weather Observer Program (CWOP)

HAMweather, WeatherForYou, PWS Weather


Weather Underground History page Text

Daily Summary for January 16, 2017 Units:  English    Metric   Both
« Previous Day
Next Day »
Daily Weekly Monthly Yearly Custom
  High: Low: Average:
Temperature: 41.4 °F 26.8 °F 33.7 °F
Dew Point: 31.2 °F 21.5 °F 25.9 °F
Humidity: 87 % 55 % 73 %
Wind Speed: 5.5 mph 0.0 mph 1.5 mph
Wind Gust: 10.4 mph - -
Wind:- - South
Pressure: 30.45 in 30.25 in -
Precipitation: 0.00 in    
Historical Graphs
 
 
Tabular Data for January 16, 2017
Time Temperature Dew Point Pressure Wind Wind Speed Wind Gust Humidity Rainfall Rate (Hourly)
00:02 27.3 °F 23.9 °F 30.39 in Calm   1.2 mph 87 % 0.00 in
00:07 27.3 °F 23.9 °F 30.39 in Calm     87 % 0.00 in
00:12 27.3 °F 23.9 °F 30.39 in North 0.1 mph   87 % 0.00 in
00:17 27.4 °F 24.0 °F 30.39 in Calm   1.2 mph 87 % 0.00 in
00:22 27.4 °F 23.8 °F 30.39 in Calm   1.2 mph 86 % 0.00 in
00:27 27.4 °F 23.8 °F 30.39 in Calm     86 % 0.00 in
00:32 27.4 °F 23.8 °F 30.39 in Calm   1.0 mph 86 % 0.00 in
00:37 27.4 °F 23.8 °F 30.40 in Calm     86 % 0.00 in
00:42 27.3 °F 23.4 °F 30.40 in Calm   1.2 mph 85 % 0.00 in
00:47 27.3 °F 23.4 °F 30.39 in ENE 1.2 mph 2.3 mph 85 % 0.00 in
00:52 27.3 °F 23.4 °F 30.40 in SE 0.6 mph 2.3 mph 85 % 0.00 in
00:58 27.3 °F 23.4 °F 30.40 in Calm     85 % 0.00 in
01:03 27.3 °F 23.1 °F 30.40 in NE 0.1 mph 1.2 mph 84 % 0.00 in
01:08 27.4 °F 23.2 °F 30.40 in ENE 1.6 mph 3.5 mph 84 % 0.00 in
01:13 27.4 °F 23.2 °F 30.40 in ENE 5.5 mph 10.4 mph 84 % 0.00 in
01:18 28.4 °F 23.3 °F 30.40 in ENE 2.2 mph 3.5 mph 81 % 0.00 in
01:23 29.2 °F 23.5 °F 30.40 in ENE 3.1 mph 6.9 mph 79 % 0.00 in
01:28 29.6 °F 23.6 °F 30.41 in NNE 2.1 mph 6.9 mph 78 % 0.00 in
01:33 30.1 °F 23.8 °F 30.41 in ENE 3.1 mph 4.6 mph 77 % 0.00 in
01:38 30.4 °F 23.7 °F 30.41 in ENE 5.2 mph 8.1 mph 76 % 0.00 in
01:43 30.9 °F 23.6 °F 30.41 in NE 4.2 mph 8.0 mph 74 % 0.00 in
01:48 31.3 °F 23.3 °F 30.41 in ENE 3.4 mph 6.9 mph 72 % 0.00 in
01:53 31.4 °F 23.4 °F 30.42 in ENE 3.8 mph 6.9 mph 72 % 0.00 in
01:58 31.6 °F 23.3 °F 30.42 in ENE 3.4 mph 4.6 mph 71 % 0.00 in
02:03 31.6 °F 23.6 °F 30.42 in East 3.0 mph 7.0 mph 72 % 0.00 in
02:08 31.6 °F 23.3 °F 30.42 in NNE 1.9 mph 4.0 mph 71 % 0.00 in
02:13 31.6 °F 23.3 °F 30.42 in NE 2.7 mph 6.0 mph 71 % 0.00 in
02:19 31.6 °F 22.9 °F 30.42 in ENE 5.0 mph 9.2 mph 70 % 0.00 in
02:24 31.6 °F 22.9 °F 30.42 in NE 3.6 mph 8.1 mph 70 % 0.00 in
02:29 31.6 °F 22.9 °F 30.43 in ENE 3.8 mph 8.1 mph 70 % 0.00 in
02:34 31.5 °F 22.8 °F 30.43 in ENE 3.0 mph 8.0 mph 70 % 0.00 in
02:39 31.5 °F 23.2 °F 30.43 in NE 2.0 mph 5.0 mph 71 % 0.00 in
02:44 31.4 °F 23.1 °F 30.43 in NNE 2.0 mph 7.0 mph 71 % 0.00 in
02:49 31.2 °F 22.6 °F 30.43 in NNE 3.0 mph 8.0 mph 70 % 0.00 in
02:54 31.1 °F 22.5 °F 30.42 in NNE 2.0 mph 7.0 mph 70 % 0.00 in
02:59 31.0 °F 22.4 °F 30.42 in NNE 3.0 mph 8.1 mph 70 % 0.00 in
03:04 31.0 °F 22.4 °F 30.42 in ENE 3.7 mph 9.2 mph 70 % 0.00 in
03:09 31.0 °F 22.4 °F 30.42 in NE 3.3 mph 5.8 mph 70 % 0.00 in
03:14 30.9 °F 22.6 °F 30.42 in NE 1.4 mph 3.5 mph 71 % 0.00 in
03:19 30.8 °F 22.5 °F 30.42 in NE 3.1 mph 4.6 mph 71 % 0.00 in
03:24 30.6 °F 22.6 °F 30.42 in ENE 1.1 mph 3.5 mph 72 % 0.00 in
03:29 30.5 °F 22.2 °F 30.42 in ENE 1.6 mph 3.5 mph 71 % 0.00 in
03:34 30.5 °F 22.5 °F 30.42 in ENE 1.5 mph 3.5 mph 72 % 0.00 in
03:40 30.4 °F 22.8 °F 30.42 in NE 0.9 mph 2.0 mph 73 % 0.00 in
03:45 30.3 °F 22.4 °F 30.42 in East 1.5 mph 4.6 mph 72 % 0.00 in
03:50 30.2 °F 22.6 °F 30.42 in ENE 1.1 mph 3.5 mph 73 % 0.00 in
03:55 30.1 °F 22.5 °F 30.42 in NNE 2.4 mph 4.0 mph 73 % 0.00 in
04:00 30.0 °F 22.4 °F 30.42 in NNE 0.2 mph 3.5 mph 73 % 0.00 in
04:05 29.9 °F 22.3 °F 30.42 in ENE 0.9 mph 2.3 mph 73 % 0.00 in
04:10 29.8 °F 22.5 °F 30.42 in ENE 1.7 mph 3.5 mph 74 % 0.00 in
04:15 29.7 °F 22.4 °F 30.42 in ENE 1.2 mph 3.5 mph 74 % 0.00 in
04:20 29.7 °F 22.4 °F 30.42 in ENE 0.3 mph 2.3 mph 74 % 0.00 in
04:25 29.6 °F 22.3 °F 30.42 in Calm   1.2 mph 74 % 0.00 in
04:30 29.5 °F 22.6 °F 30.42 in ENE 1.3 mph 2.3 mph 75 % 0.00 in
04:35 29.4 °F 22.5 °F 30.42 in ENE 0.8 mph 2.3 mph 75 % 0.00 in
04:38 29.3 °F 22.4 °F 30.41 in ENE 1.1 mph   75 % 0.00 in
04:43 29.1 °F 22.2 °F 30.41 in ENE 1.8 mph 3.5 mph 75 % 0.00 in
04:48 29.0 °F 22.1 °F 30.41 in ENE 0.5 mph 2.3 mph 75 % 0.00 in
04:53 28.8 °F 21.9 °F 30.41 in ENE 1.5 mph 1.5 mph 75 % 0.00 in
04:58 28.7 °F 21.8 °F 30.41 in NE 1.8 mph 4.0 mph 75 % 0.00 in
05:03 28.6 °F 21.7 °F 30.41 in NE 1.3 mph 3.5 mph 75 % 0.00 in
05:08 28.5 °F 21.9 °F 30.42 in NE 1.1 mph 3.5 mph 76 % 0.00 in
05:13 28.5 °F 21.9 °F 30.41 in NE 0.7 mph 2.3 mph 76 % 0.00 in
05:18 28.4 °F 21.8 °F 30.41 in NE 1.7 mph 3.5 mph 76 % 0.00 in
05:23 28.3 °F 21.7 °F 30.41 in NNE 0.9 mph 3.5 mph 76 % 0.00 in
05:28 28.3 °F 21.7 °F 30.41 in NNE 0.2 mph 2.3 mph 76 % 0.00 in
05:33 28.2 °F 21.9 °F 30.41 in NNE 0.7 mph 2.3 mph 77 % 0.00 in
05:38 28.2 °F 21.9 °F 30.41 in NNE 0.2 mph 1.2 mph 77 % 0.00 in
05:43 28.1 °F 21.8 °F 30.41 in NNE 0.1 mph 1.2 mph 77 % 0.00 in
05:48 28.1 °F 21.8 °F 30.41 in NNE 0.2 mph 2.3 mph 77 % 0.00 in
05:53 28.0 °F 21.7 °F 30.42 in Calm     77 % 0.00 in
05:58 27.9 °F 21.6 °F 30.42 in Calm     77 % 0.00 in
06:03 27.9 °F 21.9 °F 30.42 in NNE 0.6 mph 2.3 mph 78 % 0.00 in
06:08 27.8 °F 21.8 °F 30.42 in NNW 1.6 mph 3.5 mph 78 % 0.00 in
06:14 27.8 °F 21.8 °F 30.42 in NNW 0.4 mph 3.5 mph 78 % 0.00 in
06:19 27.7 °F 22.0 °F 30.42 in North 2.7 mph 6.9 mph 79 % 0.00 in
06:24 27.8 °F 22.1 °F 30.42 in NNE 2.7 mph 4.0 mph 79 % 0.00 in
06:29 27.8 °F 22.1 °F 30.42 in NNE 3.0 mph 3.5 mph 79 % 0.00 in
06:34 27.9 °F 22.5 °F 30.42 in North 2.6 mph 3.5 mph 80 % 0.00 in
06:39 27.9 °F 22.5 °F 30.42 in North 1.0 mph 3.0 mph 80 % 0.00 in
06:44 27.9 °F 22.2 °F 30.42 in North 2.0 mph 5.0 mph 79 % 0.00 in
06:49 27.9 °F 22.2 °F 30.42 in North 1.0 mph 4.0 mph 79 % 0.00 in
06:54 27.9 °F 22.2 °F 30.43 in Calm   2.0 mph 79 % 0.00 in
06:59 27.9 °F 21.9 °F 30.42 in North 0.6 mph 2.0 mph 78 % 0.00 in
07:04 27.9 °F 21.9 °F 30.43 in Calm   3.0 mph 78 % 0.00 in
07:09 27.8 °F 21.9 °F 30.43 in Calm   2.0 mph 78 % 0.00 in
07:14 27.8 °F 21.8 °F 30.43 in Calm   1.0 mph 78 % 0.00 in
07:19 27.7 °F 21.7 °F 30.43 in Calm   2.0 mph 78 % 0.00 in
07:24 27.6 °F 21.6 °F 30.43 in North 1.0 mph 3.0 mph 78 % 0.00 in
07:29 27.5 °F 21.5 °F 30.42 in Calm     78 % 0.00 in
07:34 27.4 °F 21.7 °F 30.42 in Calm     79 % 0.00 in
07:39 27.2 °F 21.5 °F 30.43 in Calm     79 % 0.00 in
07:44 27.1 °F 21.7 °F 30.43 in Calm   1.0 mph 80 % 0.00 in
07:49 26.9 °F 21.6 °F 30.43 in Calm     80 % 0.00 in
07:54 26.9 °F 21.8 °F 30.43 in Calm     81 % 0.00 in
07:59 26.8 °F 21.8 °F 30.43 in Calm     81 % 0.00 in
08:04 26.8 °F 21.8 °F 30.43 in Calm     81 % 0.00 in
08:09 26.8 °F 22.0 °F 30.43 in Calm     82 % 0.00 in
08:14 26.8 °F 22.0 °F 30.43 in Calm     82 % 0.00 in
08:19 26.9 °F 22.4 °F 30.43 in Calm     83 % 0.00 in
08:24 27.1 °F 22.6 °F 30.43 in Calm     83 % 0.00 in
08:29 27.3 °F 23.1 °F 30.44 in Calm     84 % 0.00 in
08:34 27.5 °F 23.3 °F 30.44 in Calm     84 % 0.00 in
08:39 27.8 °F 23.6 °F 30.44 in Calm   1.2 mph 84 % 0.00 in
08:44 28.2 °F 24.0 °F 30.44 in North 0.2 mph 1.2 mph 84 % 0.00 in
08:45 28.3 °F 24.1 °F 30.44 in NW 1.3 mph 3.5 mph 84 % 0.00 in
08:50 28.7 °F 24.2 °F 30.43 in Calm     83 % 0.00 in
08:55 29.3 °F 24.2 °F 30.44 in NW 1.9 mph 3.5 mph 81 % 0.00 in
09:00 29.9 °F 23.9 °F 30.44 in NW 1.5 mph 3.5 mph 78 % 0.00 in
09:05 30.5 °F 23.8 °F 30.44 in North 2.0 mph 3.5 mph 76 % 0.00 in
09:10 30.7 °F 24.0 °F 30.44 in NNW 0.8 mph 3.5 mph 76 % 0.00 in
09:16 31.1 °F 24.1 °F 30.44 in North 1.2 mph 3.5 mph 75 % 0.00 in
09:21 31.5 °F 24.2 °F 30.44 in WNW 3.7 mph 5.0 mph 74 % 0.00 in
09:26 31.9 °F 24.2 °F 30.44 in WNW 2.4 mph 3.5 mph 73 % 0.00 in
09:31 32.3 °F 24.6 °F 30.44 in NW 2.0 mph 3.5 mph 73 % 0.00 in
09:36 32.8 °F 24.4 °F 30.44 in NW 0.1 mph 3.5 mph 71 % 0.00 in
09:41 33.2 °F 24.5 °F 30.44 in WNW 0.9 mph 3.5 mph 70 % 0.00 in
09:46 33.4 °F 25.0 °F 30.45 in NW 1.3 mph 3.5 mph 71 % 0.00 in
09:51 33.8 °F 24.7 °F 30.45 in NW 1.2 mph 2.3 mph 69 % 0.00 in
09:56 34.1 °F 25.0 °F 30.45 in WNW 0.6 mph 2.3 mph 69 % 0.00 in
10:01 34.3 °F 24.8 °F 30.44 in WNW 2.3 mph 3.5 mph 68 % 0.00 in
10:06 34.6 °F 25.1 °F 30.45 in WNW 2.2 mph 3.5 mph 68 % 0.00 in
10:11 34.8 °F 25.0 °F 30.45 in Calm   2.3 mph 67 % 0.00 in
10:16 35.0 °F 25.1 °F 30.44 in WNW 1.3 mph 3.5 mph 67 % 0.00 in
10:22 35.2 °F 25.0 °F 30.44 in NW 1.9 mph 4.6 mph 66 % 0.00 in
10:27 35.4 °F 25.2 °F 30.44 in SSW 4.2 mph 5.8 mph 66 % 0.00 in
10:32 35.6 °F 25.4 °F 30.44 in WSW 2.0 mph 3.5 mph 66 % 0.00 in
10:37 35.8 °F 24.8 °F 30.44 in WSW 2.4 mph 3.5 mph 64 % 0.00 in
10:42 35.9 °F 24.9 °F 30.44 in West 1.2 mph 2.3 mph 64 % 0.00 in
10:47 36.0 °F 25.0 °F 30.43 in WSW 1.7 mph 5.0 mph 64 % 0.00 in
10:52 35.9 °F 24.1 °F 30.43 in West 0.8 mph 4.6 mph 62 % 0.00 in
10:57 36.0 °F 24.6 °F 30.43 in WNW 2.7 mph 3.5 mph 63 % 0.00 in
11:08 36.1 °F 24.7 °F 30.43 in West 1.6 mph 6.0 mph 63 % 0.00 in
11:19 36.1 °F 24.7 °F 30.42 in West 1.0 mph 6.0 mph 63 % 0.00 in
11:53 36.4 °F 25.0 °F 30.40 in West 2.8 mph 3.5 mph 63 % 0.00 in
11:55 36.4 °F 25.0 °F 30.40 in West 1.5 mph 4.6 mph 63 % 0.00 in
11:57 36.4 °F 24.6 °F 30.40 in WSW 2.9 mph 4.6 mph 62 % 0.00 in
12:00 36.5 °F 25.1 °F 30.40 in WSW 1.5 mph 3.5 mph 63 % 0.00 in
12:10 36.8 °F 25.0 °F 30.39 in WNW 0.9 mph 3.5 mph 62 % 0.00 in
12:17 37.1 °F 26.4 °F 30.38 in North 3.3 mph 5.0 mph 65 % 0.00 in
12:25 37.5 °F 27.2 °F 30.38 in NW 0.6 mph 3.5 mph 66 % 0.00 in
12:32 37.8 °F 27.1 °F 30.37 in WNW 2.6 mph 4.0 mph 65 % 0.00 in
12:56 39.4 °F 26.2 °F 30.37 in SW 5.1 mph 9.2 mph 59 % 0.00 in
13:01 39.5 °F 25.9 °F 30.37 in West 4.0 mph 6.9 mph 58 % 0.00 in
13:21 39.8 °F 26.6 °F 30.35 in WSW 2.0 mph 6.9 mph 59 % 0.00 in
13:26 39.9 °F 26.3 °F 30.35 in West 1.4 mph 3.5 mph 58 % 0.00 in
13:28 39.9 °F 26.3 °F 30.35 in West 2.8 mph 4.0 mph 58 % 0.00 in
13:34 40.0 °F 26.4 °F 30.35 in WNW 2.6 mph 5.8 mph 58 % 0.00 in
13:44 40.3 °F 26.3 °F 30.34 in West 5.0 mph 6.0 mph 57 % 0.00 in
13:47 40.4 °F 26.4 °F 30.34 in West 3.6 mph 5.0 mph 57 % 0.00 in
13:57 40.9 °F 26.8 °F 30.33 in West 4.4 mph 6.0 mph 57 % 0.00 in
14:09 41.2 °F 26.7 °F 30.33 in West 2.0 mph 4.6 mph 56 % 0.00 in
14:18 41.3 °F 26.8 °F 30.33 in WNW 0.8 mph 2.3 mph 56 % 0.00 in
14:28 41.4 °F 26.4 °F 30.33 in WNW 0.7 mph 2.3 mph 55 % 0.00 in
15:05 41.1 °F 29.8 °F 30.32 in Calm   1.2 mph 64 % 0.00 in
15:09 41.1 °F 29.8 °F 30.32 in Calm   1.2 mph 64 % 0.00 in
15:14 41.1 °F 30.2 °F 30.32 in NNE 1.5 mph 3.5 mph 65 % 0.00 in
15:21 41.0 °F 29.4 °F 30.32 in North 0.4 mph 2.3 mph 63 % 0.00 in
15:29 41.0 °F 29.4 °F 30.32 in Calm   1.2 mph 63 % 0.00 in
15:42 40.9 °F 29.3 °F 30.32 in Calm     63 % 0.00 in
15:51 40.8 °F 29.2 °F 30.32 in Calm     63 % 0.00 in
15:56 40.7 °F 29.1 °F 30.32 in Calm     63 % 0.00 in
16:06 40.6 °F 28.6 °F 30.32 in Calm     62 % 0.00 in
16:29 40.1 °F 28.9 °F 30.32 in North 0.8 mph 1.2 mph 64 % 0.00 in
16:30 40.0 °F 28.8 °F 30.32 in North 0.8 mph 2.3 mph 64 % 0.00 in
16:35 39.7 °F 28.5 °F 30.32 in South 3.3 mph 4.6 mph 64 % 0.00 in
16:38 39.5 °F 28.7 °F 30.31 in SSW 3.1 mph 5.0 mph 65 % 0.00 in
16:39 39.5 °F 28.7 °F 30.31 in SSW 3.2 mph 5.8 mph 65 % 0.00 in
16:41 39.5 °F 28.7 °F 30.32 in South 2.9 mph 4.6 mph 65 % 0.00 in
16:46 39.2 °F 28.4 °F 30.32 in SSW 1.5 mph 3.5 mph 65 % 0.00 in
16:51 39.0 °F 28.2 °F 30.32 in South 1.3 mph 3.5 mph 65 % 0.00 in
16:56 38.8 °F 28.4 °F 30.31 in SSW 0.1 mph 3.5 mph 66 % 0.00 in
17:01 38.7 °F 28.3 °F 30.31 in SW 3.1 mph 4.0 mph 66 % 0.00 in
17:06 38.5 °F 28.1 °F 30.31 in SW 1.8 mph 3.5 mph 66 % 0.00 in
17:11 38.4 °F 28.0 °F 30.32 in SW 2.2 mph 3.5 mph 66 % 0.00 in
17:16 38.2 °F 27.8 °F 30.32 in SW 1.8 mph 3.5 mph 66 % 0.00 in
17:21 38.0 °F 28.0 °F 30.32 in SW 0.5 mph 2.3 mph 67 % 0.00 in
17:26 37.9 °F 27.9 °F 30.31 in SW 0.8 mph 2.3 mph 67 % 0.00 in
17:31 37.7 °F 27.7 °F 30.31 in Calm   1.2 mph 67 % 0.00 in
17:36 37.5 °F 27.5 °F 30.32 in Calm   1.2 mph 67 % 0.00 in
17:41 37.2 °F 27.2 °F 30.31 in SW 0.7 mph 2.3 mph 67 % 0.00 in
17:46 37.0 °F 27.1 °F 30.31 in SW 0.7 mph 2.0 mph 67 % 0.00 in
17:51 36.8 °F 27.2 °F 30.31 in SW 0.6 mph 2.3 mph 68 % 0.00 in
17:56 36.6 °F 27.4 °F 30.31 in SW 0.6 mph 1.2 mph 69 % 0.00 in
18:02 36.3 °F 27.1 °F 30.32 in SW 0.2 mph 1.2 mph 69 % 0.00 in
18:07 36.1 °F 27.3 °F 30.32 in SW 0.1 mph 1.2 mph 70 % 0.00 in
18:12 35.9 °F 27.4 °F 30.32 in SW 0.3 mph 1.2 mph 71 % 0.00 in
18:17 35.8 °F 27.3 °F 30.31 in SW 0.3 mph 1.2 mph 71 % 0.00 in
18:22 35.6 °F 27.8 °F 30.31 in South 0.1 mph 2.3 mph 73 % 0.00 in
18:27 35.5 °F 27.7 °F 30.31 in South 0.1 mph 2.3 mph 73 % 0.00 in
18:32 35.3 °F 27.8 °F 30.31 in South 1.1 mph 3.5 mph 74 % 0.00 in
18:37 35.2 °F 28.1 °F 30.31 in SSW 2.7 mph 4.6 mph 75 % 0.00 in
18:42 35.1 °F 28.6 °F 30.31 in South 3.3 mph 5.8 mph 77 % 0.00 in
18:47 35.1 °F 28.9 °F 30.31 in SW 1.5 mph 3.5 mph 78 % 0.00 in
18:52 35.1 °F 28.9 °F 30.31 in SW 1.0 mph 3.5 mph 78 % 0.00 in
18:57 35.2 °F 29.3 °F 30.31 in SSW 1.8 mph 3.5 mph 79 % 0.00 in
19:03 35.2 °F 29.3 °F 30.31 in South 1.7 mph 2.3 mph 79 % 0.00 in
19:08 35.4 °F 29.8 °F 30.31 in SW 2.5 mph 6.9 mph 80 % 0.00 in
19:13 35.6 °F 30.0 °F 30.30 in SSW 4.7 mph 6.9 mph 80 % 0.00 in
19:18 35.8 °F 30.2 °F 30.30 in SSW 2.5 mph 3.5 mph 80 % 0.00 in
19:23 36.0 °F 30.4 °F 30.30 in WSW 4.3 mph 5.0 mph 80 % 0.00 in
19:28 36.2 °F 30.6 °F 30.30 in SW 4.1 mph 6.9 mph 80 % 0.00 in
19:33 36.4 °F 30.8 °F 30.30 in WSW 1.7 mph 4.0 mph 80 % 0.00 in
19:38 36.6 °F 31.0 °F 30.30 in SSW 3.0 mph 3.5 mph 80 % 0.00 in
19:43 36.8 °F 30.9 °F 30.30 in SW 3.5 mph 5.0 mph 79 % 0.00 in
19:48 36.9 °F 31.0 °F 30.30 in SW 1.8 mph 4.6 mph 79 % 0.00 in
19:53 37.0 °F 31.1 °F 30.30 in SSW 3.1 mph 4.6 mph 79 % 0.00 in
19:58 37.0 °F 31.1 °F 30.31 in SSW 3.1 mph 4.6 mph 79 % 0.00 in
20:03 37.1 °F 31.2 °F 30.30 in SW 2.6 mph 4.6 mph 79 % 0.00 in
20:08 37.1 °F 30.9 °F 30.31 in SW 1.7 mph 2.3 mph 78 % 0.00 in
20:13 37.1 °F 30.9 °F 30.30 in SW 2.1 mph 3.5 mph 78 % 0.00 in
20:14 37.0 °F 30.8 °F 30.31 in SW 2.0 mph 3.5 mph 78 % 0.00 in
20:19 37.0 °F 30.8 °F 30.31 in SW 1.8 mph 4.0 mph 78 % 0.00 in
20:24 37.0 °F 30.8 °F 30.31 in SW 0.5 mph 3.5 mph 78 % 0.00 in
20:30 37.0 °F 30.8 °F 30.30 in SW 2.2 mph 3.5 mph 78 % 0.00 in
20:35 37.0 °F 30.8 °F 30.30 in SW 1.3 mph 3.5 mph 78 % 0.00 in
20:40 37.0 °F 30.8 °F 30.31 in SSW 0.4 mph 2.3 mph 78 % 0.00 in
20:45 37.1 °F 30.9 °F 30.30 in SW 0.3 mph 1.0 mph 78 % 0.00 in
20:50 37.1 °F 30.9 °F 30.30 in SW 2.3 mph 2.3 mph 78 % 0.00 in
20:55 37.2 °F 31.0 °F 30.30 in SW 0.5 mph 3.5 mph 78 % 0.00 in
21:00 37.3 °F 30.7 °F 30.30 in SW 0.8 mph 5.8 mph 77 % 0.00 in
21:05 37.4 °F 30.8 °F 30.30 in SSW 2.7 mph 3.5 mph 77 % 0.00 in
21:10 37.5 °F 30.9 °F 30.30 in SW 2.3 mph 4.0 mph 77 % 0.00 in
21:15 37.6 °F 30.7 °F 30.30 in WSW 2.9 mph 3.5 mph 76 % 0.00 in
21:20 37.7 °F 31.1 °F 30.29 in SSW 1.5 mph 3.5 mph 77 % 0.00 in
21:25 37.7 °F 30.8 °F 30.29 in SSW 3.3 mph 5.0 mph 76 % 0.00 in
21:30 37.8 °F 30.9 °F 30.29 in SW 2.1 mph 3.5 mph 76 % 0.00 in
21:35 37.9 °F 31.0 °F 30.29 in SW 3.3 mph 4.6 mph 76 % 0.00 in
21:40 37.9 °F 30.7 °F 30.29 in SW 1.8 mph 3.5 mph 75 % 0.00 in
21:45 38.0 °F 30.8 °F 30.29 in SW 1.0 mph 2.3 mph 75 % 0.00 in
21:50 38.1 °F 30.5 °F 30.28 in SW 2.1 mph 3.5 mph 74 % 0.00 in
21:55 38.1 °F 30.5 °F 30.28 in SW 0.4 mph 2.0 mph 74 % 0.00 in
22:00 38.1 °F 30.5 °F 30.28 in WSW 3.4 mph 4.0 mph 74 % 0.00 in
22:05 38.2 °F 30.3 °F 30.28 in SW 0.3 mph 3.5 mph 73 % 0.00 in
22:11 38.2 °F 30.3 °F 30.28 in SSW 1.6 mph 2.3 mph 73 % 0.00 in
22:16 38.2 °F 30.3 °F 30.28 in SSW 2.9 mph 5.0 mph 73 % 0.00 in
22:21 38.3 °F 30.4 °F 30.28 in SW 2.3 mph 3.5 mph 73 % 0.00 in
22:26 38.3 °F 30.4 °F 30.28 in SW 0.6 mph 2.3 mph 73 % 0.00 in
22:31 38.3 °F 30.4 °F 30.28 in SW 1.8 mph 4.6 mph 73 % 0.00 in
22:36 38.3 °F 30.1 °F 30.27 in SW 2.1 mph 3.5 mph 72 % 0.00 in
22:41 38.3 °F 30.4 °F 30.27 in SW 0.7 mph 2.3 mph 73 % 0.00 in
22:46 38.4 °F 30.2 °F 30.27 in SW 0.9 mph 2.3 mph 72 % 0.00 in
22:51 38.4 °F 30.2 °F 30.27 in SW 1.2 mph 3.0 mph 72 % 0.00 in
22:56 38.4 °F 30.2 °F 30.27 in SW 0.3 mph 2.3 mph 72 % 0.00 in
23:01 38.4 °F 30.2 °F 30.26 in SW 0.8 mph 3.5 mph 72 % 0.00 in
23:06 38.4 °F 30.2 °F 30.26 in SW 0.8 mph 2.3 mph 72 % 0.00 in
23:11 38.4 °F 30.2 °F 30.26 in SW 2.2 mph 3.5 mph 72 % 0.00 in
23:16 38.4 °F 30.2 °F 30.26 in SW 2.5 mph 4.0 mph 72 % 0.00 in
23:21 38.4 °F 30.2 °F 30.26 in SW 2.1 mph 4.6 mph 72 % 0.00 in
23:26 38.4 °F 30.2 °F 30.25 in SSW 0.1 mph 1.2 mph 72 % 0.00 in
23:31 38.4 °F 29.8 °F 30.25 in SW 0.8 mph 2.3 mph 71 % 0.00 in
23:36 38.4 °F 29.8 °F 30.26 in SSW 2.1 mph 4.6 mph 71 % 0.00 in
23:41 38.4 °F 29.8 °F 30.25 in SW 1.8 mph 3.5 mph 71 % 0.00 in
23:46 38.5 °F 29.9 °F 30.25 in SW 2.5 mph 3.5 mph 71 % 0.00 in
23:52 38.6 °F 30.0 °F 30.25 in SW 1.8 mph 3.5 mph 71 % 0.00 in
23:57 38.6 °F 30.0 °F 30.25 in WSW 0.8 mph 4.6 mph 71 % 0.00 in
Crab Meadow Weather
Compliments of Weather Underground - 2.75 mb

Script developed by  Jim McMurry - jmcmurry@mwt.net Adapted for the template by  Wim van der Kuil - Leuven-Template.eu

Dew Point: The dew point is the temperature to which air must be cooled, at constant barometric pressure, for water vapor to condense into water. The condensed water is called dew. When the dew point temperature falls below freezing it is called the frost point, as the water no longer creates dew but instead creates frost. The dew point is associated with relative humidity. A high relative humidity indicates that the dew point is closer to the current air temperature. If the relative humidity is 100%, the dew point is equal to the current temperature. Given a constant dew point, an increase in temperature will lead to a decrease in relative humidity.